Latest Weather Observations for Ballina

IDN60801

Issued at 5:33 am EST Saturday 30 July 2016 (issued every 30 minutes, with the page automatically refreshed every 10 minutes)

About weather observations | Map of weather stations | Latest weather observations for NSW | Other Formats
Station Details ID: 058198 Name: BALLINA AIRPORT AWS Lat: -28.84 Lon: 153.56 Height: 1.3 m
Data from the previous 72 hours. | See also: Recent months at Ballina
Date/Time
EST
Temp
°C
App
Temp
°C
Dew
Point
°C
Rel
Hum
%
Delta-T
°C
Wind Press
QNH
hPa
Press
MSL
hPa
Rain since
9am
mm
Dir  Spd
km/h
Gust
km/h
Spd
kts
Gust
kts
30/05:30am 5.9 3.8 5.6 98 0.1 SW 6 7 3 4 1019.7 1019.7 0.0
30/05:25am 5.5 3.3 5.1 97 0.2 SW 6 7 3 4 1019.6 1019.6 0.0
30/05:04am 4.5 2.8 3.9 96 0.2 WNW 2 15 1 8 1019.6 1019.6 0.0
30/05:00am 5.5 4.4 4.9 96 0.3 CALM 0 0 0 0 1019.5 1019.5 0.0
30/04:51am 5.5 4.4 4.9 96 0.3 CALM 0 0 0 0 1019.4 1019.4 0.0
30/04:30am 5.5 4.3 4.8 95 0.3 CALM 0 0 0 0 1019.3 1019.3 0.0
30/04:24am 5.4 4.2 4.5 94 0.4 CALM 0 0 0 0 1019.3 1019.3 0.0
30/04:00am 6.6 4.9 6.0 96 0.3 NW 4 7 2 4 1019.2 1019.2 0.0
30/03:30am 6.5 4.8 5.8 95 0.3 NW 4 7 2 4 1019.3 1019.3 0.0
30/03:00am 7.8 7.1 7.1 95 0.3 CALM 0 0 0 0 1019.4 1019.4 0.0
30/02:30am 7.1 6.2 6.2 94 0.4 CALM 0 4 0 2 1019.5 1019.5 0.0
30/02:00am 6.8 5.4 5.6 92 0.5 N 2 6 1 3 1019.6 1019.6 0.0
30/01:30am 8.0 6.8 6.6 91 0.6 N 2 6 1 3 1019.8 1019.8 0.0
30/01:00am 10.1 8.6 8.4 89 0.8 N 6 6 3 3 1019.7 1019.7 0.0
30/12:30am 10.9 9.2 8.3 84 1.3 N 7 9 4 5 1019.9 1019.9 0.0
30/12:00am 11.6 8.6 7.7 77 1.9 N 13 13 7 7 1019.8 1019.8 0.0
 
Date/Time
EST
Temp
°C
App
Temp
°C
Dew
Point
°C
Rel
Hum
%
Delta-T
°C
Wind Press
QNH
hPa
Press
MSL
hPa
Rain since
9am
mm
Dir  Spd
km/h
Gust
km/h
Spd
kts
Gust
kts
29/11:30pm 12.5 9.9 7.8 73 2.3 N 11 13 6 7 1020.0 1020.0 0.0
29/11:00pm 12.7 10.4 9.0 78 1.9 NNW 11 13 6 7 1020.3 1020.3 0.0
29/10:30pm 10.9 9.3 8.1 83 1.4 NNW 6 9 3 5 1020.2 1020.2 0.0
29/10:00pm 13.1 11.3 9.4 78 1.9 N 9 13 5 7 1020.0 1020.0 0.0
29/09:30pm 13.3 11.1 9.4 77 2.0 N 11 13 6 7 1020.0 1020.0 0.0
29/09:00pm 13.8 11.3 9.6 76 2.1 N 13 13 7 7 1020.0 1020.0 0.0
29/08:30pm 14.1 12.0 9.7 75 2.3 N 11 13 6 7 1019.9 1019.9 0.0
29/08:00pm 14.9 12.9 10.1 73 2.5 N 11 15 6 8 1019.7 1019.7 0.0
29/07:30pm 15.1 12.8 10.3 73 2.5 N 13 17 7 9 1019.7 1019.7 0.0
29/07:00pm 14.7 13.2 10.5 76 2.2 N 9 11 5 6 1019.4 1019.4 0.0
29/06:30pm 14.8 13.9 11.4 80 1.8 N 7 9 4 5 1019.3 1019.3 0.0
29/06:00pm 16.0 14.7 9.9 67 3.2 NNE 7 11 4 6 1019.1 1019.1 0.0
29/05:30pm 16.9 14.7 9.3 61 3.9 NNE 11 17 6 9 1018.9 1018.9 0.0
29/05:00pm 17.8 15.8 8.6 55 4.7 NNE 9 11 5 6 1018.8 1018.8 0.0
29/04:30pm 19.6 16.7 8.3 48 5.9 NNE 13 17 7 9 1019.0 1019.0 0.0
29/04:00pm 20.3 16.8 8.6 47 6.1 NNE 17 24 9 13 1019.0 1019.0 0.0
29/03:30pm 20.6 16.4 7.6 43 6.7 NE 19 26 10 14 1019.2 1019.2 0.0
29/03:00pm 21.2 16.8 7.4 41 7.1 NE 20 28 11 15 1019.2 1019.2 0.0
29/02:30pm 21.3 16.6 6.0 37 7.7 NE 20 30 11 16 1019.4 1019.4 0.0
29/02:00pm 21.5 16.7 5.8 36 7.8 NE 20 26 11 14 1019.5 1019.5 0.0
29/01:30pm 21.6 17.2 6.7 38 7.6 ENE 19 24 10 13 1019.8 1019.8 0.0
29/01:00pm 21.8 17.3 6.1 36 7.9 NE 19 26 10 14 1020.3 1020.3 0.0
29/12:30pm 21.9 18.1 7.7 40 7.4 E 17 24 9 13 1020.9 1020.9 0.0
29/12:00pm 22.7 20.9 8.0 39 7.7 W 7 13 4 7 1021.5 1021.5 0.0
29/11:30am 21.4 18.7 5.7 36 7.8 NNW 9 17 5 9 1022.1 1022.1 0.0
29/11:00am 21.3 19.5 7.9 42 6.9 N 7 13 4 7 1022.6 1022.6 0.0
29/10:30am 20.5 18.8 8.2 45 6.4 N 7 11 4 6 1022.9 1022.9 0.0
29/10:00am 18.9 17.6 9.1 53 5.1 NNW 6 9 3 5 1023.4 1023.4 0.0
29/09:30am 17.1 16.3 11.6 70 3.0 WNW 7 9 4 5 1023.6 1023.6 0.0
29/09:00am 14.2 14.1 10.8 80 1.8 W 2 6 1 3 1023.7 1023.7 0.0
29/08:30am 12.1 12.2 10.3 89 0.9 CALM 0 0 0 0 1023.5 1023.5 0.0
29/08:00am 9.8 9.7 9.3 97 0.2 CALM 0 0 0 0 1023.5 1023.5 0.0
29/07:30am 8.0 7.5 7.9 99 0.0 CALM 0 0 0 0 1023.4 1023.4 0.0
29/07:00am 5.5 4.5 5.4 99 0.0 CALM 0 0 0 0 1023.3 1023.3 0.0
29/06:52am 5.0 3.5 4.9 99 0.0 N 2 6 1 3 1023.2 1023.2 0.0
29/06:30am 4.9 3.7 4.8 99 0.0 CALM 0 0 0 0 1022.9 1022.9 0.0
29/06:18am 5.1 4.0 5.0 99 0.0 CALM 0 0 0 0 1022.6 1022.6 0.0
29/06:00am 5.0 3.9 4.9 99 0.0 CALM 0 0 0 0 1022.5 1022.5 0.0
29/05:30am 5.3 4.2 5.2 99 0.0 CALM 0 0 0 0 1022.2 1022.2 0.0
29/05:10am 5.9 4.9 5.8 99 0.0 CALM 0 0 0 0 1022.1 1022.1 0.0
29/05:00am 5.5 4.5 5.4 99 0.0 CALM 0 0 0 0 1022.1 1022.1 0.0
29/04:51am 5.7 4.7 5.6 99 0.0 CALM 0 0 0 0 1022.1 1022.1 0.0
29/04:44am 5.7 4.7 5.6 99 0.0 CALM 0 0 0 0 1022.2 1022.2 0.0
29/04:30am 5.5 4.5 5.4 99 0.0 CALM 0 0 0 0 1022.0 1022.0 0.0
29/04:18am 5.3 4.2 5.2 99 0.0 CALM 0 0 0 0 1022.0 1022.0 0.0
29/04:12am 5.4 4.3 5.3 99 0.0 CALM 0 0 0 0 1021.9 1021.9 0.0
29/04:00am 5.4 4.3 5.3 99 0.0 CALM 0 0 0 0 1021.9 1021.9 0.0
29/03:30am 5.8 4.8 5.7 99 0.0 CALM 0 0 0 0 1022.0 1022.0 0.0
29/03:27am 5.7 4.7 5.6 99 0.0 CALM 0 0 0 0 1022.0 1022.0 0.0
29/03:00am 6.3 5.4 6.2 99 0.0 CALM 0 0 0 0 1022.2 1022.2 0.0
29/02:30am 6.2 5.3 6.1 99 0.0 CALM 0 0 0 0 1022.3 1022.3 0.0
29/02:00am 6.3 5.4 6.2 99 0.0 CALM 0 0 0 0 1022.3 1022.3 0.0
29/01:30am 6.5 5.7 6.4 99 0.0 CALM 0 0 0 0 1022.4 1022.4 0.0
29/01:00am 6.8 6.0 6.7 99 0.0 CALM 0 0 0 0 1022.4 1022.4 0.0
29/12:59am 6.8 6.0 6.7 99 0.0 CALM 0 0 0 0 1022.5 1022.5 0.0
29/12:30am 6.5 5.6 6.2 98 0.1 CALM 0 0 0 0 1022.6 1022.6 0.0
29/12:22am 6.9 6.1 6.6 98 0.1 CALM 0 0 0 0 1022.6 1022.6 0.0
29/12:00am 7.2 6.5 6.9 98 0.1 CALM 0 0 0 0 1022.8 1022.8 0.0
 
Date/Time
EST
Temp
°C
App
Temp
°C
Dew
Point
°C
Rel
Hum
%
Delta-T
°C
Wind Press
QNH
hPa
Press
MSL
hPa
Rain since
9am
mm
Dir  Spd
km/h
Gust
km/h
Spd
kts
Gust
kts
28/11:30pm 7.2 6.5 6.9 98 0.1 CALM 0 0 0 0 1022.9 1022.9 0.0
28/11:00pm 7.4 6.7 7.1 98 0.1 CALM 0 0 0 0 1022.9 1022.9 0.0
28/10:49pm 7.4 6.7 7.1 98 0.1 CALM 0 0 0 0 1023.0 1023.0 0.0
28/10:30pm 7.9 7.3 7.6 98 0.1 CALM 0 0 0 0 1023.1 1023.1 0.0
28/10:00pm 7.5 6.8 6.9 96 0.3 CALM 0 0 0 0 1023.2 1023.2 0.0
28/09:54pm 7.6 6.9 7.0 96 0.3 CALM 0 0 0 0 1023.2 1023.2 0.0
28/09:47pm 8.1 7.6 7.7 97 0.2 CALM 0 0 0 0 1023.2 1023.2 0.0
28/09:30pm 7.9 7.3 7.5 97 0.2 CALM 0 0 0 0 1023.2 1023.2 0.0
28/09:28pm 8.1 7.6 7.7 97 0.2 CALM 0 0 0 0 1023.3 1023.3 0.0
28/09:00pm 8.6 8.2 8.3 98 0.1 CALM 0 0 0 0 1023.4 1023.4 0.0
28/08:55pm 9.5 9.3 9.2 98 0.1 CALM 0 0 0 0 1023.3 1023.3 0.0
28/08:34pm 8.8 8.4 8.2 96 0.3 CALM 0 0 0 0 1023.4 1023.4 0.0
28/08:30pm 8.8 8.4 8.2 96 0.3 CALM 0 0 0 0 1023.4 1023.4 0.0
28/08:00pm 9.6 9.3 8.8 95 0.4 CALM 0 0 0 0 1023.2 1023.2 0.0
28/07:30pm 10.0 9.7 8.8 92 0.6 CALM 0 0 0 0 1023.2 1023.2 0.0
28/07:00pm 10.5 10.2 8.8 89 0.8 CALM 0 0 0 0 1023.0 1023.0 0.0
28/06:30pm 11.8 11.8 9.9 88 1.0 CALM 0 0 0 0 1022.7 1022.7 0.0
28/06:00pm 12.7 12.9 10.6 87 1.1 CALM 0 0 0 0 1022.6 1022.6 0.0
28/05:30pm 14.0 14.2 10.4 79 1.9 CALM 0 0 0 0 1022.7 1022.7 0.0
28/05:00pm 16.9 16.3 8.8 59 4.1 ESE 2 6 1 3 1022.5 1022.5 0.0
28/04:30pm 17.8 15.8 8.6 55 4.7 ESE 9 13 5 7 1022.4 1022.4 0.0
28/04:00pm 18.5 16.5 8.7 53 5.1 SE 9 15 5 8 1022.3 1022.3 0.0
28/03:30pm 18.9 16.4 8.3 50 5.5 SSE 11 17 6 9 1022.4 1022.4 0.0
28/03:00pm 19.0 16.2 8.4 50 5.5 SSE 13 19 7 10 1022.4 1022.4 0.0
28/02:30pm 19.0 15.8 8.6 51 5.4 SE 15 20 8 11 1022.4 1022.4 0.0
28/02:00pm 19.1 15.7 7.8 48 5.8 SSE 15 20 8 11 1022.5 1022.5 0.0
28/01:30pm 19.1 15.0 7.8 48 5.8 SSE 19 24 10 13 1022.7 1022.7 0.0
28/01:00pm 19.2 15.1 7.9 48 5.8 SSE 19 24 10 13 1023.0 1023.0 0.0
28/12:30pm 19.8 16.9 8.2 47 6.0 SW 13 22 7 12 1023.3 1023.3 0.0
28/12:00pm 18.8 15.2 6.9 46 5.9 SSW 15 20 8 11 1023.7 1023.7 0.0
28/11:30am 18.3 15.0 6.2 45 6.0 SW 13 20 7 11 1024.2 1024.2 0.0
28/11:00am 18.2 14.5 6.1 45 5.9 SW 15 20 8 11 1024.5 1024.5 0.0
28/10:30am 17.2 12.9 5.2 45 5.8 WSW 17 22 9 12 1024.8 1024.8 0.0
28/10:00am 16.7 12.2 4.1 43 5.9 SW 17 26 9 14 1024.6 1024.6 0.0
28/09:30am 16.0 11.0 3.4 43 5.8 WSW 19 24 10 13 1024.6 1024.6 0.0
28/09:00am 15.1 11.2 5.3 52 4.6 WSW 15 19 8 10 1024.5 1024.5 0.0
28/08:30am 13.8 10.2 6.7 62 3.4 W 15 19 8 10 1024.4 1024.4 0.0
28/08:00am 12.6 9.6 6.0 64 3.1 W 11 15 6 8 1024.3 1024.3 0.0
28/07:30am 10.1 7.2 6.6 79 1.6 W 11 11 6 6 1023.9 1023.9 0.0
28/07:00am 7.4 4.9 4.5 82 1.3 W 7 9 4 5 1023.6 1023.6 0.0
28/06:30am 6.2 5.1 5.2 93 0.4 CALM 0 6 0 3 1023.0 1023.0 0.0
28/06:00am 6.6 4.3 4.8 88 0.8 WNW 6 7 3 4 1022.6 1022.6 0.0
28/05:30am 7.7 6.1 4.7 81 1.3 WNW 2 6 1 3 1022.2 1022.2 0.0
28/05:00am 7.9 5.3 4.1 77 1.6 W 7 9 4 5 1022.0 1022.0 0.0
28/04:30am 7.9 5.0 4.5 79 1.5 WNW 9 13 5 7 1021.5 1021.5 0.0
28/04:00am 8.0 5.3 5.8 86 1.0 WNW 9 11 5 6 1021.4 1021.4 0.0
28/03:30am 6.5 5.3 4.5 87 0.9 CALM 0 0 0 0 1021.3 1021.3 0.0
28/03:00am 8.8 5.1 4.4 74 1.9 W 13 17 7 9 1021.3 1021.3 0.0
28/02:30am 8.5 5.6 4.9 78 1.6 WNW 9 11 5 6 1021.3 1021.3 0.0
28/02:00am 7.5 5.7 5.3 86 1.0 WNW 4 7 2 4 1021.4 1021.4 0.0
28/01:30am 7.0 4.6 5.2 88 0.8 W 7 9 4 5 1021.5 1021.5 0.0
28/01:00am 7.0 4.7 4.7 85 1.0 W 6 7 3 4 1021.6 1021.6 0.0
28/12:30am 7.9 5.3 4.3 78 1.6 WSW 7 9 4 5 1021.5 1021.5 0.0
28/12:00am 9.0 6.5 5.0 76 1.8 WSW 7 9 4 5 1021.2 1021.2 0.0
 
Date/Time
EST
Temp
°C
App
Temp
°C
Dew
Point
°C
Rel
Hum
%
Delta-T
°C
Wind Press
QNH
hPa
Press
MSL
hPa
Rain since
9am
mm
Dir  Spd
km/h
Gust
km/h
Spd
kts
Gust
kts
27/11:30pm 10.3 7.6 3.8 64 2.9 W 7 9 4 5 1020.9 1020.9 0.0
27/11:00pm 11.3 8.0 4.7 64 3.0 WSW 11 13 6 7 1020.7 1020.7 0.0
27/10:30pm 8.4 6.4 6.2 86 1.0 W 6 7 3 4 1020.6 1020.6 0.0
27/10:00pm 9.7 7.3 5.3 74 2.0 W 7 9 4 5 1020.7 1020.7 0.0
27/09:30pm 8.0 7.0 5.5 84 1.1 CALM 0 0 0 0 1020.3 1020.3 0.0
27/09:00pm 9.0 8.1 5.9 81 1.4 CALM 0 0 0 0 1020.1 1020.1 0.0
27/08:30pm 10.7 8.0 5.5 70 2.4 W 9 15 5 8 1019.9 1019.9 0.0
27/08:00pm 8.6 6.9 7.4 92 0.6 WNW 6 9 3 5 1019.5 1019.5 0.0
27/07:30pm 9.5 9.0 7.8 89 0.8 CALM 0 0 0 0 1019.2 1019.2 0.0
27/07:00pm 9.8 8.2 7.9 88 0.9 NNW 6 7 3 4 1018.6 1018.6 0.0
27/06:30pm 10.4 9.9 8.0 85 1.2 CALM 0 0 0 0 1018.2 1018.2 0.0
27/06:00pm 11.8 11.5 8.6 81 1.6 CALM 0 0 0 0 1017.6 1017.6 0.0
27/05:30pm 13.4 12.0 8.9 74 2.3 N 6 7 3 4 1017.0 1017.0 0.0
27/05:00pm 15.3 13.4 9.2 67 3.1 NNE 9 11 5 6 1016.6 1016.6 0.0
27/04:30pm 17.6 15.4 6.2 47 5.6 NNE 7 9 4 5 1016.3 1016.3 0.0
27/04:00pm 18.4 15.2 5.3 42 6.3 NNW 11 15 6 8 1016.0 1016.0 0.0
27/03:30pm 19.0 15.0 4.7 39 6.9 NNW 15 19 8 10 1015.7 1015.7 0.0
27/03:00pm 18.5 14.5 5.0 41 6.5 NW 15 20 8 11 1015.7 1015.7 0.0
27/02:30pm 18.2 14.4 4.0 39 6.7 WNW 13 19 7 10 1015.6 1015.6 0.0
27/02:00pm 18.3 14.2 4.1 39 6.7 WNW 15 20 8 11 1015.6 1015.6 0.0
27/01:30pm 17.6 13.0 3.5 39 6.6 WNW 17 22 9 12 1015.9 1015.9 0.0
27/01:00pm 17.5 12.0 3.8 40 6.4 WNW 22 32 12 17 1016.2 1016.2 0.0
27/12:30pm 17.2 12.7 4.2 42 6.1 WNW 17 24 9 13 1016.7 1016.7 0.0
27/12:00pm 17.0 11.9 3.3 40 6.3 WNW 19 28 10 15 1017.0 1017.0 0.0
27/11:30am 16.7 11.5 2.7 39 6.4 WNW 19 26 10 14 1017.4 1017.4 0.0
27/11:00am 17.0 11.7 3.0 39 6.4 W 20 28 11 15 1017.8 1017.8 0.0
27/10:30am 16.7 10.5 2.0 37 6.6 W 24 32 13 17 1018.0 1018.0 0.0
27/10:00am 18.2 12.6 3.3 37 6.9 W 22 32 12 17 1018.2 1018.2 0.0
27/09:30am 16.7 13.7 2.0 37 6.6 WNW 7 15 4 8 1018.2 1018.2 0.0
27/09:00am 16.4 11.9 2.4 39 6.3 WNW 15 24 8 13 1018.1 1018.1 0.0
27/08:30am 15.6 10.8 2.7 42 5.8 W 17 24 9 13 1018.1 1018.1 0.0
27/08:00am 15.0 11.7 2.5 43 5.6 WNW 9 15 5 8 1017.8 1017.8 0.0
27/07:30am 14.6 11.4 2.8 45 5.3 W 9 17 5 9 1018.0 1018.0 0.0
27/07:00am 14.7 10.3 2.9 45 5.3 WNW 15 22 8 12 1017.7 1017.7 0.0
27/06:30am 14.5 9.4 3.3 47 5.1 WNW 19 22 10 12 1017.4 1017.4 0.0
27/06:00am 13.5 10.4 5.4 58 3.8 W 11 15 6 8 1016.9 1016.9 0.0

Other Formats:

Comma delimited format used in spreadsheet applications
http://www.bom.gov.au/fwo/IDN60801/IDN60801.94596.axf

JavaScript Object Notation format (JSON) in row-major order
http://www.bom.gov.au/fwo/IDN60801/IDN60801.94596.json